Location: N�rnberg
(49.4471°N, 11.0632°E)
Time: 09:05:20
(UTC+01:00)

ARIANE 6 FM1 Upper Stage - Visible Passes

Search period start: 09 February 2026 00:00
Search period end: 19 February 2026 00:00
Orbit: 522 x 609 km, 62.0° (Epoch: 8 February)

Date Brightness Start Highest point End Pass type
(mag) Time Alt. Az. Time Alt. Az. Time Alt. Az.
9 Feb 4.6 18:40:05 10° NNW 18:42:27 15° NNE 18:44:02 12° NE visible
9 Feb 4.9 20:18:49 10° NW 20:20:03 18° NNW 20:20:03 18° NNW visible
10 Feb 4.5 18:40:06 10° NNW 18:42:42 16° NNE 18:44:13 14° NE visible
10 Feb 4.7 20:18:45 10° NW 20:20:14 21° NNW 20:20:14 21° NNW visible
11 Feb 4.3 18:40:05 10° NNW 18:42:56 18° NNE 18:44:27 15° NE visible
11 Feb 4.5 20:18:43 10° NW 20:20:28 25° NNW 20:20:28 25° NNW visible
12 Feb 4.1 18:40:01 10° NNW 18:43:07 21° NNE 18:44:44 17° ENE visible
12 Feb 4.3 20:18:41 10° NW 20:20:45 29° NW 20:20:45 29° NW visible
13 Feb 3.8 18:39:56 10° NNW 18:43:17 25° NNE 18:45:03 19° ENE visible
13 Feb 4.0 20:18:42 10° NW 20:21:05 35° WNW 20:21:05 35° WNW visible
14 Feb 3.5 18:39:50 10° NNW 18:43:24 31° NNE 18:45:29 19° E visible
14 Feb 3.9 20:18:45 10° NW 20:21:31 37° W 20:21:31 37° W visible
15 Feb 3.1 18:39:45 10° NW 18:43:29 39° NE 18:46:00 18° E visible
15 Feb 4.1 20:18:51 10° WNW 20:22:02 33° WSW 20:22:02 33° WSW visible
16 Feb 2.8 18:39:39 10° NW 18:43:32 51° NE 18:46:39 15° ESE visible
16 Feb 4.5 20:19:05 10° WNW 20:22:18 24° WSW 20:22:42 24° SW visible
17 Feb 2.5 18:39:34 10° NW 18:43:33 69° NE 18:47:28 10° SE visible
17 Feb 5.0 20:19:27 10° WNW 20:22:06 17° WSW 20:23:32 15° SW visible
18 Feb 2.5 18:39:32 10° NW 18:43:30 86° SW 18:47:28 10° SE visible
18 Feb 5.5 20:20:16 10° W 20:21:53 12° WSW 20:23:29 10° SW visible
